VCV1211 SKBO-SVMI

Flight info

Callsign VCV1211
Flight time 1h 29m
Altitude 41000
Route DANSA4R AKROB DCT KIKAS UP533 PBL ALDAK1
Aircraft A343/H-SDE2E3FGHIJ4J5M1RWXY/LB1D1

Departure

Time 2026-04-30 21:14
Airport El Dorado International Airport (SKBO)

Arrival

Time 2026-04-30 22:43
Airport Maiquetía Simón Bolívar International Airport (SVMI)
Time Latitude Longitude Altitude Speed Heading
2026-04-30 20:58 4.70025 -74.14178 8374 ft 0 kts 217°
2026-04-30 21:06 4.70034 -74.14171 8371 ft 3 kts 217°
2026-04-30 21:06 4.70049 -74.14160 8369 ft 3 kts 217°
2026-04-30 21:06 4.70064 -74.14148 8375 ft 3 kts 229°
2026-04-30 21:07 4.70074 -74.14131 8385 ft 3 kts 274°
2026-04-30 21:07 4.70073 -74.14119 8366 ft 0 kts 302°
2026-04-30 21:08 4.70077 -74.14123 8374 ft 4 kts 309°
2026-04-30 21:09 4.70111 -74.14163 8370 ft 11 kts 308°
2026-04-30 21:09 4.70179 -74.14203 8372 ft 14 kts 349°
2026-04-30 21:09 4.70274 -74.14251 8369 ft 17 kts 312°
2026-04-30 21:09 4.70347 -74.14343 8369 ft 17 kts 307°
2026-04-30 21:10 4.70425 -74.14439 8369 ft 17 kts 315°
2026-04-30 21:10 4.70528 -74.14482 8372 ft 15 kts 330°
2026-04-30 21:10 4.70614 -74.14577 8372 ft 23 kts 309°
2026-04-30 21:10 4.70732 -74.14733 8371 ft 33 kts 306°
2026-04-30 21:11 4.70887 -74.14940 8369 ft 41 kts 307°
2026-04-30 21:11 4.71056 -74.15168 8371 ft 30 kts 308°
2026-04-30 21:11 4.71189 -74.15228 8371 ft 5 kts 351°
2026-04-30 21:11 4.71190 -74.15228 8371 ft 0 kts 351°
2026-04-30 21:12 4.71206 -74.15229 8371 ft 6 kts 355°
2026-04-30 21:12 4.71210 -74.15229 8371 ft 0 kts 355°
2026-04-30 21:13 4.71224 -74.15230 8371 ft 4 kts 355°
2026-04-30 21:13 4.71280 -74.15227 8371 ft 12 kts 20°
2026-04-30 21:13 4.71297 -74.15161 8372 ft 11 kts 115°
2026-04-30 21:13 4.71196 -74.15018 8373 ft 49 kts 126°
2026-04-30 21:14 4.70870 -74.14590 8368 ft 104 kts 127°
2026-04-30 21:14 4.70329 -74.13876 8373 ft 151 kts 127°
2026-04-30 21:14 4.69620 -74.12937 8519 ft 180 kts 129°
2026-04-30 21:14 4.68764 -74.12054 9378 ft 175 kts 143°
2026-04-30 21:15 4.67534 -74.11672 9635 ft 201 kts 174°
2026-04-30 21:15 4.66069 -74.11896 9891 ft 225 kts 201°
2026-04-30 21:15 4.64853 -74.12948 10279 ft 243 kts 238°
2026-04-30 21:15 4.64117 -74.14518 10822 ft 255 kts 246°
2026-04-30 21:16 4.63455 -74.16183 11544 ft 263 kts 245°
2026-04-30 21:16 4.62741 -74.17932 12042 ft 280 kts 246°
2026-04-30 21:16 4.61993 -74.19722 13031 ft 277 kts 244°
2026-04-30 21:16 4.61400 -74.21568 13849 ft 282 kts 255°
2026-04-30 21:17 4.60982 -74.23559 14156 ft 303 kts 257°
2026-04-30 21:17 4.60570 -74.25701 14438 ft 320 kts 256°
2026-04-30 21:17 4.59725 -74.27773 14882 ft 323 kts 231°
2026-04-30 21:17 4.58264 -74.29475 15486 ft 324 kts 223°
2026-04-30 21:18 4.56685 -74.31099 16078 ft 326 kts 222°
2026-04-30 21:18 4.55100 -74.32710 16637 ft 330 kts 222°
2026-04-30 21:18 4.53427 -74.34319 17200 ft 333 kts 216°
2026-04-30 21:18 4.51494 -74.35646 17600 ft 343 kts 208°
2026-04-30 21:19 4.49395 -74.36898 17803 ft 358 kts 208°
2026-04-30 21:19 4.47201 -74.38187 18036 ft 374 kts 208°
2026-04-30 21:19 4.44911 -74.39540 18257 ft 388 kts 208°
2026-04-30 21:19 4.42542 -74.40947 18486 ft 401 kts 208°
2026-04-30 21:20 4.40117 -74.42392 18863 ft 409 kts 208°
2026-04-30 21:20 4.37688 -74.43842 19321 ft 414 kts 208°
2026-04-30 21:20 4.35205 -74.45323 19810 ft 417 kts 208°
2026-04-30 21:20 4.32660 -74.46747 20275 ft 419 kts 203°
2026-04-30 21:21 4.29896 -74.47657 20765 ft 419 kts 188°
2026-04-30 21:21 4.26999 -74.47783 21241 ft 418 kts 172°
2026-04-30 21:21 4.21645 -74.45668 22251 ft 418 kts 141°
2026-04-30 21:22 4.19607 -74.43605 22720 ft 419 kts 126°
2026-04-30 21:22 4.17706 -74.35209 23985 ft 431 kts 79°
2026-04-30 21:23 4.18582 -74.32318 24268 ft 437 kts 70°
2026-04-30 21:23 4.19657 -74.29492 24582 ft 441 kts 70°
2026-04-30 21:23 4.21872 -74.23720 25276 ft 447 kts 70°
2026-04-30 21:24 4.22767 -74.20742 25664 ft 449 kts 80°
2026-04-30 21:24 4.22899 -74.17607 25977 ft 451 kts 96°
2026-04-30 21:24 4.22466 -74.14487 26357 ft 453 kts 100°
2026-04-30 21:24 4.21932 -74.11358 26657 ft 457 kts 100°
2026-04-30 21:25 4.20857 -74.05033 27349 ft 463 kts 100°
2026-04-30 21:25 4.20368 -74.01870 27661 ft 467 kts 97°
2026-04-30 21:25 4.20230 -73.98603 27989 ft 471 kts 88°
2026-04-30 21:26 4.21634 -73.92188 28605 ft 477 kts 67°
2026-04-30 21:26 4.23184 -73.89236 28945 ft 481 kts 57°
2026-04-30 21:27 4.27766 -73.84353 29633 ft 485 kts 36°
2026-04-30 21:27 4.30657 -73.82590 29936 ft 488 kts 25°
2026-04-30 21:27 4.33827 -73.81380 30229 ft 489 kts 14°
2026-04-30 21:28 4.40555 -73.80676 30745 ft 492 kts
2026-04-30 21:28 4.43971 -73.80229 30878 ft 499 kts 11°
2026-04-30 21:28 4.50626 -73.77945 31049 ft 512 kts 20°
2026-04-30 21:29 4.53972 -73.76652 31262 ft 515 kts 20°
2026-04-30 21:29 4.63767 -73.72755 32884 ft 499 kts 20°
2026-04-30 21:30 4.70212 -73.70159 33508 ft 499 kts 20°
2026-04-30 21:31 4.79891 -73.66247 34370 ft 499 kts 19°
2026-04-30 21:31 4.86325 -73.63643 34946 ft 497 kts 19°
2026-04-30 21:32 4.92733 -73.61050 35545 ft 495 kts 19°
2026-04-30 21:32 4.95923 -73.59758 35867 ft 493 kts 19°
2026-04-30 21:32 4.99069 -73.58484 36152 ft 492 kts 19°
2026-04-30 21:32 5.02248 -73.57197 36380 ft 492 kts 19°
2026-04-30 21:33 5.05437 -73.55906 36616 ft 492 kts 19°
2026-04-30 21:33 5.11782 -73.53336 37157 ft 490 kts 18°
2026-04-30 21:33 5.14944 -73.52055 37479 ft 488 kts 18°
2026-04-30 21:34 5.18089 -73.50780 37777 ft 487 kts 18°
2026-04-30 21:34 5.24330 -73.48252 38259 ft 486 kts 18°
2026-04-30 21:34 5.27468 -73.46980 38487 ft 485 kts 18°
2026-04-30 21:35 5.30594 -73.45714 38723 ft 484 kts 18°
2026-04-30 21:35 5.33719 -73.44447 38900 ft 484 kts 18°
2026-04-30 21:35 5.36798 -73.43045 39085 ft 487 kts 24°
2026-04-30 21:35 5.39660 -73.41193 39273 ft 492 kts 34°
2026-04-30 21:36 5.42302 -73.39071 39451 ft 493 kts 37°
2026-04-30 21:36 5.44901 -73.36806 39646 ft 493 kts 38°
2026-04-30 21:37 5.52505 -73.29889 40262 ft 489 kts 38°
2026-04-30 21:37 5.55034 -73.27603 40351 ft 490 kts 38°
2026-04-30 21:37 5.57580 -73.25320 40456 ft 491 kts 38°
2026-04-30 21:37 5.60138 -73.23037 40639 ft 490 kts 38°
2026-04-30 21:38 5.62687 -73.20768 40811 ft 489 kts 38°
2026-04-30 21:38 5.64372 -73.19270 40924 ft 489 kts 38°
2026-04-30 21:38 5.70341 -73.13964 40954 ft 494 kts 38°
2026-04-30 21:39 5.74606 -73.10167 40954 ft 492 kts 38°
2026-04-30 21:39 5.79752 -73.05584 40964 ft 491 kts 38°
2026-04-30 21:40 5.84830 -73.01062 40943 ft 490 kts 38°
2026-04-30 21:40 5.89936 -72.96513 40946 ft 490 kts 38°
2026-04-30 21:41 5.95005 -72.91998 40967 ft 490 kts 38°
2026-04-30 21:41 6.00104 -72.87455 40955 ft 490 kts 38°
2026-04-30 21:42 6.05205 -72.82909 40946 ft 490 kts 38°
2026-04-30 21:42 6.10304 -72.78356 40974 ft 490 kts 38°
2026-04-30 21:43 6.15398 -72.73815 40956 ft 491 kts 38°
2026-04-30 21:43 6.20510 -72.69256 40958 ft 490 kts 38°
2026-04-30 21:44 6.25604 -72.64711 40981 ft 489 kts 38°
2026-04-30 21:44 6.30676 -72.60185 40978 ft 489 kts 38°
2026-04-30 21:45 6.35771 -72.55634 40980 ft 490 kts 38°
2026-04-30 21:45 6.40876 -72.51075 41013 ft 490 kts 38°
2026-04-30 21:46 6.45968 -72.46526 41017 ft 489 kts 38°
2026-04-30 21:46 6.51029 -72.42002 41012 ft 489 kts 38°
2026-04-30 21:47 6.56121 -72.37451 41025 ft 491 kts 38°
2026-04-30 21:47 6.61246 -72.32869 41019 ft 492 kts 38°
2026-04-30 21:48 6.66347 -72.28305 41020 ft 493 kts 38°
2026-04-30 21:48 6.71473 -72.23720 40970 ft 492 kts 38°
2026-04-30 21:49 6.76594 -72.19138 40973 ft 490 kts 38°
2026-04-30 21:49 6.81656 -72.14606 40916 ft 489 kts 38°
2026-04-30 21:50 6.86752 -72.10042 40858 ft 489 kts 38°
2026-04-30 21:50 6.91845 -72.05480 40840 ft 489 kts 38°
2026-04-30 21:51 6.96901 -72.00951 40819 ft 489 kts 38°
2026-04-30 21:51 7.01927 -71.96300 40810 ft 491 kts 43°
2026-04-30 21:52 7.06644 -71.91302 40843 ft 492 kts 44°
2026-04-30 21:52 7.11266 -71.86285 40842 ft 491 kts 44°
2026-04-30 21:53 7.15906 -71.81229 40826 ft 491 kts 44°
2026-04-30 21:53 7.20545 -71.76181 40831 ft 491 kts 44°
2026-04-30 21:54 7.25201 -71.71121 40826 ft 493 kts 44°
2026-04-30 21:54 7.29854 -71.66065 40817 ft 494 kts 44°
2026-04-30 21:55 7.34530 -71.60981 40818 ft 494 kts 44°
2026-04-30 21:55 7.39209 -71.55890 40818 ft 494 kts 44°
2026-04-30 21:56 7.43880 -71.50808 40815 ft 494 kts 44°
2026-04-30 21:56 7.48544 -71.45732 40815 ft 494 kts 44°
2026-04-30 21:57 7.53181 -71.40684 40818 ft 494 kts 44°
2026-04-30 21:57 7.57855 -71.35595 40818 ft 493 kts 44°
2026-04-30 21:58 7.62510 -71.30524 40818 ft 493 kts 44°
2026-04-30 21:58 7.67169 -71.25448 40826 ft 493 kts 44°
2026-04-30 21:59 7.71792 -71.20409 40827 ft 493 kts 44°
2026-04-30 22:00 7.78780 -71.12789 40835 ft 493 kts 44°
2026-04-30 22:00 7.85762 -71.05169 40837 ft 493 kts 44°
2026-04-30 22:01 7.90420 -71.00084 40848 ft 493 kts 44°
2026-04-30 22:01 7.95047 -70.95032 40845 ft 494 kts 44°
2026-04-30 22:02 7.99720 -70.89927 40845 ft 495 kts 44°
2026-04-30 22:02 8.04386 -70.84827 40852 ft 493 kts 44°
2026-04-30 22:03 8.09035 -70.79744 40854 ft 491 kts 44°
2026-04-30 22:03 8.13649 -70.74698 40853 ft 491 kts 44°
2026-04-30 22:04 8.18282 -70.69629 40853 ft 491 kts 44°
2026-04-30 22:05 8.25242 -70.62012 40857 ft 492 kts 44°
2026-04-30 22:05 8.29894 -70.56919 40854 ft 493 kts 44°
2026-04-30 22:06 8.34519 -70.51852 40852 ft 493 kts 44°
2026-04-30 22:06 8.41499 -70.44200 40834 ft 493 kts 44°
2026-04-30 22:07 8.46145 -70.39106 40851 ft 493 kts 44°
2026-04-30 22:07 8.50796 -70.34005 40851 ft 493 kts 44°
2026-04-30 22:08 8.55443 -70.28905 40838 ft 493 kts 44°
2026-04-30 22:08 8.60090 -70.23804 40852 ft 494 kts 44°
2026-04-30 22:09 8.64706 -70.18696 40838 ft 495 kts 45°
2026-04-30 22:09 8.69266 -70.13475 40841 ft 494 kts 46°
2026-04-30 22:10 8.73809 -70.08250 40857 ft 494 kts 46°
2026-04-30 22:10 8.78340 -70.03065 40842 ft 494 kts 46°
2026-04-30 22:11 8.85194 -69.95242 40859 ft 494 kts 45°
2026-04-30 22:12 8.89759 -69.90032 40849 ft 494 kts 46°
2026-04-30 22:12 8.94317 -69.84825 40841 ft 494 kts 46°
2026-04-30 22:13 8.98861 -69.79633 40843 ft 492 kts 46°
2026-04-30 22:13 9.03366 -69.74483 40847 ft 492 kts 46°
2026-04-30 22:14 9.07909 -69.69288 40847 ft 492 kts 46°
2026-04-30 22:14 9.12451 -69.64094 40846 ft 492 kts 46°
2026-04-30 22:15 9.16960 -69.58935 40850 ft 492 kts 46°
2026-04-30 22:15 9.21494 -69.53744 40850 ft 492 kts 46°
2026-04-30 22:16 9.26031 -69.48548 40847 ft 492 kts 46°
2026-04-30 22:17 9.35112 -69.38140 40834 ft 493 kts 46°
2026-04-30 22:17 9.41918 -69.30333 40845 ft 493 kts 46°
2026-04-30 22:18 9.48698 -69.22551 40842 ft 493 kts 46°
2026-04-30 22:19 9.53225 -69.17351 40444 ft 490 kts 46°
2026-04-30 22:19 9.55481 -69.14759 40207 ft 490 kts 45°
2026-04-30 22:19 9.60034 -69.09531 39712 ft 499 kts 45°
2026-04-30 22:20 9.62337 -69.06886 39476 ft 500 kts 45°
2026-04-30 22:20 9.66946 -69.01592 39005 ft 502 kts 45°
2026-04-30 22:20 9.69258 -68.98936 38765 ft 502 kts 45°
2026-04-30 22:21 9.71567 -68.96281 38350 ft 501 kts 45°
2026-04-30 22:21 9.73872 -68.93630 37747 ft 502 kts 45°
2026-04-30 22:21 9.76187 -68.90969 37160 ft 502 kts 46°
2026-04-30 22:21 9.78501 -68.88308 36551 ft 503 kts 46°
2026-04-30 22:22 9.80798 -68.85666 35909 ft 504 kts 46°
2026-04-30 22:22 9.83118 -68.82998 35252 ft 506 kts 47°
2026-04-30 22:22 9.85452 -68.80312 34611 ft 507 kts 47°
2026-04-30 22:22 9.87786 -68.77625 34001 ft 507 kts 47°
2026-04-30 22:23 9.90125 -68.74933 33176 ft 511 kts 47°
2026-04-30 22:23 9.92486 -68.72214 32401 ft 512 kts 48°
2026-04-30 22:23 9.94840 -68.69504 31663 ft 513 kts 49°
2026-04-30 22:23 9.97203 -68.66781 30929 ft 513 kts 49°
2026-04-30 22:24 9.99535 -68.64095 30217 ft 513 kts 49°
2026-04-30 22:24 10.01890 -68.61380 29484 ft 512 kts 49°
2026-04-30 22:24 10.04245 -68.58669 28743 ft 509 kts 49°
2026-04-30 22:24 10.06584 -68.55982 28067 ft 505 kts 49°
2026-04-30 22:25 10.08900 -68.53318 27406 ft 501 kts 49°
2026-04-30 22:25 10.11199 -68.50675 26816 ft 496 kts 50°
2026-04-30 22:25 10.12703 -68.48946 26435 ft 492 kts 49°
2026-04-30 22:25 10.14967 -68.46342 25849 ft 487 kts 49°
2026-04-30 22:26 10.19404 -68.41235 24702 ft 477 kts 49°
2026-04-30 22:26 10.21588 -68.38720 24209 ft 470 kts 49°
2026-04-30 22:26 10.23737 -68.36247 23661 ft 466 kts 49°
2026-04-30 22:27 10.25871 -68.33789 23027 ft 461 kts 49°
2026-04-30 22:27 10.27982 -68.31358 22432 ft 456 kts 49°
2026-04-30 22:27 10.32134 -68.26575 21296 ft 446 kts 49°
2026-04-30 22:28 10.36172 -68.21923 20189 ft 437 kts 50°
2026-04-30 22:28 10.38170 -68.19620 19659 ft 433 kts 50°
2026-04-30 22:29 10.44084 -68.12796 18008 ft 423 kts 50°
2026-04-30 22:29 10.46020 -68.10562 17437 ft 418 kts 50°
2026-04-30 22:30 10.50266 -68.00188 15332 ft 396 kts 78°
2026-04-30 22:31 10.52144 -67.92118 13795 ft 386 kts 78°
2026-04-30 22:32 10.54000 -67.84248 12214 ft 376 kts 78°
2026-04-30 22:32 10.55209 -67.79132 11218 ft 368 kts 78°
2026-04-30 22:33 10.56946 -67.71785 10461 ft 337 kts 78°
2026-04-30 22:33 10.57989 -67.67317 10178 ft 314 kts 79°
2026-04-30 22:34 10.58374 -67.61000 9625 ft 291 kts 89°
2026-04-30 22:35 10.58506 -67.56922 8983 ft 287 kts 89°
2026-04-30 22:36 10.58781 -67.48867 7729 ft 281 kts 89°
2026-04-30 22:36 10.58849 -67.46877 7503 ft 282 kts 90°
2026-04-30 22:37 10.59049 -67.40971 6851 ft 278 kts 90°
2026-04-30 22:37 10.59116 -67.39005 6634 ft 278 kts 90°
2026-04-30 22:37 10.59249 -67.35076 6238 ft 277 kts 90°
2026-04-30 22:38 10.59380 -67.31202 5836 ft 270 kts 89°
2026-04-30 22:38 10.59509 -67.27411 5327 ft 267 kts 90°
2026-04-30 22:39 10.59571 -67.25540 4969 ft 268 kts 89°
2026-04-30 22:39 10.59763 -67.19800 3810 ft 271 kts 89°
2026-04-30 22:40 10.59954 -67.14130 3027 ft 259 kts 89°
2026-04-30 22:41 10.60209 -67.09171 2068 ft 207 kts 88°
2026-04-30 22:41 10.60258 -67.06519 1511 ft 171 kts 87°
2026-04-30 22:42 10.60373 -67.02131 431 ft 140 kts 92°
2026-04-30 22:43 10.60409 -67.00282 231 ft 101 kts 88°
2026-04-30 22:43 10.60440 -66.99332 209 ft 49 kts 88°
2026-04-30 22:44 10.60186 -66.99107 204 ft 31 kts 174°
2026-04-30 22:45 10.59948 -66.99446 218 ft 31 kts 254°
2026-04-30 22:45 10.60040 -66.99664 223 ft 21 kts 359°
2026-04-30 22:46 10.60136 -66.99818 225 ft 16 kts 268°
2026-04-30 22:47 10.59926 -66.99928 227 ft 10 kts 224°
2026-04-30 22:47 10.59891 -67.00014 225 ft 5 kts 181°
2026-04-30 22:48 10.59842 -67.00011 230 ft 1 kts 179°
2026-04-30 22:49 10.59841 -67.00011 230 ft 0 kts 179°